Tracking 19484 objects as of 20-Jan-2019
HD Live streaming from Space Station
objects crossing your sky now

LEMUR 2 ALEXANDER

Track LEMUR 2 ALEXANDER now!
10-day predictions
LEMUR 2 ALEXANDER is classified as:


NORAD ID: 43559
Int'l Code: 2018-046F
Perigee: 481.8 km
Apogee: 492.3 km
Inclination: 51.6 °
Period: 94.2 minutes
Semi major axis: 6858 km
RCS: Unknown
Launch date: May 21, 2018
Source: United States (US)
Launch site: WALLOPS ISLAND (WLPIS)
aabbcc
Your satellite tracking list
Your tracking list is empty




NASA's NSSDC Master Catalog

Two Line Element Set (TLE):
1 43559U 18046F   19019.50289304  .00002987  00000-0  11830-3 0  9998
2 43559  51.6423  56.4822 0007619 253.5532 106.4611 15.28621892 28366
Source of the keplerian elements: AFSPC